Torna al catalogo

NOAA 16 DEB

AttivoSSO
NORAD 41411·DEBRIS·🇺🇸 United States

Lanciato Sep 21, 2000 da Vandenberg Space Force Base

Loading…

Prossimi Passaggi (prossime 24 ore)

TLE

AggiornatoSource: Space-Track

Epoca: Sep 14, 2026, 04:00 UTC

1 41411U 00055KQ  26257.16703769  .00003431  00000-0  11133-2 0  9994
2 41411  98.8489  28.3009 0013511 260.0014  99.9648 14.39530179549538

Traccia NOAA 16 DEB in tempo reale con AllMySat

Download on the App Store